Terminal Aerodrome Forecast
Issued by NWS Cleveland, OH

Home | Current Version | Previous Version | Graphics & Text | Print | Product List | Glossary On
Versions: 1 2 3 4 5 6 7 8 9 10 11 12 13 14 15 16 17 18 19 20 21
000
FTUS41 KCLE 251000 AAA
TAFTOL
TAF AMD
KTOL 251001Z 2510/2606 VRB03KT P6SM SCT035 BKN060
     FM251400 16005KT P6SM SCT035
     FM252100 08006KT P6SM SCT035
     FM260300 VRB03KT P6SM FEW050 SCT100=

USA.gov is the U.S. government's official web portal to all federal, state and local government web resources and services.